GEFSGL_con_cape1000_360.txt.gz
Probability
32 29 29 29 32 35 39 35 35 29 35 32 29 26 26 23 23 19 26 26 26 26 32 26 23 26 26 19 16 6 6 3 3 3 3 0 0 0 0 0 0 0 0
29 29 29 29 32 32 32 29 32 26 39 42 32 29 26 29 23 19 19 26 23 19 19 23 19 26 13 13 10 10 10 6 3 3 3 0 0 0 0 0 0 0 0
29 23 19 19 19 26 23 16 19 32 32 35 29 29 23 23 23 19 16 16 16 13 16 16 16 23 19 13 10 10 10 6 3 3 3 0 0 0 0 0 0 0 0
23 13 13 13 13 13 13 16 19 26 29 26 19 23 19 19 19 23 13 19 13 6 6 10 19 13 13 16 13 13 13 6 6 3 3 3 0 0 0 0 0 0 0
19 16 10 10 10 13 6 10 16 19 13 16 16 13 13 13 13 16 13 16 6 10 13 10 6 6 10 13 13 13 16 13 10 10 3 3 0 0 0 0 0 0 0
23 19 13 10 10 13 13 13 13 13 10 13 16 16 16 19 10 6 10 13 10 6 13 10 10 6 3 3 3 3 3 3 10 6 6 6 0 0 0 0 0 0 0
23 19 13 13 13 13 16 13 16 13 10 10 10 16 10 13 10 3 6 6 10 10 10 10 10 13 6 10 3 0 0 0 0 0 0 0 0 0 0 0 0 0 0
26 26 19 16 16 16 13 6 6 10 10 10 10 6 13 10 10 3 3 6 10 6 10 6 10 10 13 6 3 3 0 0 0 0 0 0 3 0 0 0 0 0 0
26 26 23 23 23 19 19 16 6 10 13 19 16 10 13 16 13 3 0 0 0 0 3 6 6 6 10 3 6 3 3 3 0 0 0 0 0 0 0 0 0 0 0
26 23 23 19 19 13 16 16 16 13 13 13 16 13 13 10 6 3 0 3 3 3 3 3 3 3 6 0 3 6 6 3 3 0 0 0 0 0 0 0 0 0 0
23 19 16 16 16 13 13 13 6 10 10 10 16 16 13 13 10 3 0 3 3 3 3 3 6 6 3 0 0 3 6 3 3 0 0 0 0 0 0 0 0 0 0
19 19 16 10 13 13 13 6 6 6 6 6 10 10 10 10 10 6 3 0 3 3 3 3 6 6 0 0 0 0 0 0 3 3 0 0 0 0 0 0 0 0 0
19 19 19 16 13 13 13 10 6 6 6 6 10 10 10 10 10 3 0 0 0 3 3 3 3 3 0 0 0 0 0 0 3 3 0 0 0 0 0 0 0 0 0
16 13 16 13 13 6 13 13 13 10 10 6 6 10 10 13 10 6 6 0 0 0 0 0 0 0 0 0 0 0 0 0 3 3 0 0 0 0 0 0 0 0 0
16 16 13 13 13 10 6 10 6 6 6 6 10 10 10 6 3 3 6 3 6 0 0 0 0 0 0 0 3 3 0 0 0 3 0 0 0 0 0 0 0 0 0
16 16 13 6 10 10 10 3 3 3 3 3 3 3 6 3 3 0 0 0 0 0 0 0 0 0 3 3 3 3 3 0 0 3 0 0 0 0 0 0 0 0 0
16 13 10 10 6 10 10 6 3 0 0 0 0 0 0 0 0 0 0 0 0 0 0 0 0 0 3 3 3 3 3 0 0 3 0 0 0 0 0 0 0 0 0
16 13 13 10 10 10 10 10 3 3 0 0 0 0 0 0 0 0 0 0 0 0 0 0 0 0 0 0 3 3 3 6 3 0 0 0 0 0 0 0 0 0 0
13 13 6 6 6 10 10 3 3 3 3 3 0 0 0 0 0 0 0 0 0 0 0 0 0 0 0 3 3 0 0 0 0 0 0 0 0 3 3 3 3 3 3
10 10 6 6 6 6 6 3 3 3 3 3 3 0 0 0 0 0 0 0 0 0 0 0 0 0 0 0 3 0 0 0 0 0 0 0 3 3 3 0 3 3 3
6 6 6 6 6 6 6 3 3 3 3 3 3 0 0 0 0 0 0 0 0 0 0 0 0 0 0 0 0 0 0 0 0 0 0 0 0 3 3 3 3 6 6
10 10 6 6 6 6 6 6 3 3 3 3 3 0 0 0 0 0 0 0 0 0 0 0 0 3 3 3 0 0 0 0 0 0 0 0 0 0 0 0 3 6 6
10 10 10 10 6 6 6 6 3 3 3 3 3 0 0 0 0 3 3 3 3 0 0 0 0 0 0 0 0 0 0 0 0 0 0 0 0 0 0 0 0 0 0
10 10 10 6 6 3 3 3 3 3 3 3 3 3 0 0 0 0 0 0 0 0 0 0 0 0 0 0 0 0 0 0 0 0 0 0 0 0 0 0 0 0 0
10 10 3 3 0 0 0 0 0 0 0 0 0 0 0 0 0 0 0 0 0 0 0 0 0 0 0 0 0 0 0 0 0 0 0 0 0 0 0 0 0 0 0
6 6 6 3 3 0 0 0 0 0 0 0 0 0 0 0 0 0 0 0 0 0 0 0 0 0 0 0 0 0 0 0 0 0 0 0 0 0 0 0 0 0 0

GEFSGL_con_cape1000_366.txt.gz
Probability
10 6 6 10 10 10 6 10 13 6 6 10 6 13 13 13 16 13 13 10 10 13 13 13 16 16 19 19 13 10 3 3 3 3 3 0 0 0 0 0 0 0 0
10 10 10 10 10 13 13 6 6 10 6 10 10 13 13 16 16 13 13 19 13 10 13 10 10 10 10 13 13 13 6 6 3 10 3 0 0 0 0 0 0 0 0
10 10 10 10 10 10 13 3 3 3 3 6 6 13 16 19 13 13 13 19 13 10 13 6 6 6 10 10 13 13 13 10 10 6 3 3 0 0 0 0 0 0 0
6 6 10 10 10 10 13 6 6 6 6 10 16 16 13 10 16 16 13 13 10 10 6 6 6 6 10 6 6 6 13 13 13 10 3 3 3 0 0 0 0 0 0
10 10 10 13 10 10 6 6 3 3 13 13 16 16 6 10 10 13 16 10 10 10 6 6 6 6 6 6 6 6 6 10 13 13 6 6 3 0 0 0 0 0 0
16 16 16 16 6 6 3 3 3 6 3 3 3 0 3 10 6 6 13 10 10 10 10 6 6 6 3 3 3 3 3 3 10 13 10 6 3 0 0 0 0 0 0
13 16 13 16 13 10 13 3 3 3 3 3 6 3 3 0 0 3 3 6 13 10 10 10 6 6 3 3 3 3 3 3 3 3 10 10 3 0 3 0 0 0 0
13 13 13 10 13 10 6 0 0 0 0 3 3 6 3 3 0 0 0 3 6 13 10 6 6 6 6 3 3 3 6 3 0 0 0 6 6 3 0 0 0 0 0
16 16 13 10 10 6 3 0 3 0 0 3 3 3 6 10 0 0 0 3 3 3 10 6 6 6 3 3 3 3 6 6 0 0 0 0 0 0 0 0 0 3 3
19 13 19 16 13 13 10 3 0 3 3 3 0 0 3 6 0 0 0 0 3 3 3 6 0 3 3 0 3 3 6 6 6 6 0 0 0 0 0 0 3 0 3
19 19 16 16 6 6 6 3 3 3 0 0 0 0 0 0 0 0 0 0 0 3 3 6 3 0 0 0 0 3 3 3 3 3 6 3 6 6 0 0 0 0 3
13 13 13 10 10 10 6 3 0 0 0 3 3 3 3 0 0 0 0 0 0 0 3 3 3 0 0 0 0 0 0 0 3 3 3 0 3 6 6 0 0 0 0
6 6 6 6 10 10 6 6 0 0 0 0 0 3 3 3 0 0 0 0 0 0 0 0 0 0 0 0 0 0 0 0 0 0 0 0 0 6 6 6 3 0 0
6 6 6 6 10 10 6 6 0 0 0 0 3 3 3 3 0 0 0 0 0 0 0 0 0 0 0 0 0 0 0 0 0 0 0 0 3 6 3 3 0 0 0
6 6 6 10 10 10 10 6 0 0 0 0 0 3 3 3 3 0 0 0 0 0 0 0 0 0 0 0 0 0 0 0 0 0 0 0 0 3 3 3 0 0 0
6 6 6 10 10 10 6 6 3 0 0 0 0 0 0 0 0 0 0 0 0 0 0 0 0 0 0 0 3 0 0 0 0 3 0 0 0 0 3 0 0 0 0
3 10 10 10 10 6 6 6 6 0 0 0 0 0 0 0 0 0 0 0 0 0 0 0 0 0 0 0 0 0 0 3 0 0 0 0 0 0 0 0 0 0 0
3 3 6 3 3 6 6 10 10 10 6 0 0 0 0 0 0 0 0 0 0 0 0 3 3 3 3 0 3 3 3 3 3 3 0 0 0 0 0 0 0 0 0
3 3 6 3 3 6 6 10 10 10 6 3 0 0 0 0 0 0 0 0 3 3 0 3 3 6 3 3 3 3 3 3 3 3 0 0 0 0 0 0 3 0 0
3 3 3 3 3 6 6 10 10 6 3 3 3 3 0 0 0 0 0 0 0 0 0 0 3 0 3 3 3 3 3 3 3 3 0 0 0 0 0 0 0 0 0
3 3 3 3 3 3 6 6 6 6 6 3 3 3 0 0 0 0 0 0 0 0 0 0 0 0 3 3 3 3 3 3 3 0 0 0 0 0 0 0 0 0 0
6 10 3 6 6 6 6 6 6 6 6 3 3 3 0 0 0 0 0 0 0 0 0 0 0 0 0 0 0 3 0 0 0 0 0 0 0 0 0 0 0 0 0
6 10 6 6 6 6 6 6 6 6 6 6 3 3 0 0 0 0 3 3 3 0 0 0 0 0 0 0 0 0 0 0 0 0 0 0 0 0 0 0 0 0 0
6 6 6 6 6 6 6 6 6 6 6 6 3 3 0 0 0 0 0 0 0 0 0 0 0 0 0 0 0 0 0 0 0 0 0 0 0 0 0 0 0 0 0
3 6 6 6 6 6 6 6 6 6 6 6 3 0 0 0 0 0 0 0 0 0 0 0 0 0 0 0 0 0 0 0 0 0 0 0 0 0 0 0 0 0 0
3 6 6 6 6 6 3 3 3 3 3 0 0 0 0 0 0 0 0 0 0 0 0 0 0 0 0 0 0 0 0 0 0 0 0 0 0 0 0 0 0 0 0

GEFSGL_con_cape1000_372.txt.gz
Probability
48 45 48 35 45 42 42 52 48 52 48 55 55 52 48 48 55 55 42 45 29 32 32 29 35 35 39 35 39 32 35 35 23 23 26 26 29 29 23 23 13 10 3
39 42 39 32 39 39 39 39 55 58 52 52 48 45 39 39 42 39 42 32 29 32 29 29 26 29 32 32 35 35 32 29 23 26 23 23 26 29 29 29 13 6 10
42 39 39 39 39 42 39 42 45 48 45 39 42 39 42 39 39 39 32 32 26 29 29 26 23 23 26 26 26 23 23 19 26 19 19 19 19 19 23 16 10 23 3
39 39 39 39 39 39 48 52 52 48 42 35 32 39 35 35 29 29 35 32 26 23 29 29 29 23 26 23 16 19 13 26 26 19 13 13 10 13 19 16 13 16 10
45 48 48 48 45 45 52 52 48 39 35 35 39 39 35 35 26 26 29 23 23 26 26 23 19 13 10 10 13 26 23 19 19 19 13 10 10 16 13 13 6 13 16
48 48 55 48 52 45 42 39 39 42 35 42 39 35 32 23 6 10 10 26 26 26 29 26 10 10 10 6 6 6 6 19 23 23 16 19 23 16 19 10 6 10 13
52 48 52 48 48 45 45 48 45 39 42 42 39 32 32 23 6 6 6 26 29 29 26 19 10 6 10 10 6 0 3 3 3 23 16 16 19 16 16 13 23 13 13
45 55 48 48 48 45 45 48 45 52 42 45 42 42 39 19 6 0 0 19 29 26 23 23 16 16 10 10 10 13 16 16 13 13 19 19 16 23 23 23 23 19 19
48 48 48 45 45 42 45 48 52 52 52 42 42 42 35 29 6 0 0 26 29 26 26 19 16 13 10 6 10 19 16 16 6 3 3 6 3 3 3 13 10 13 13
45 45 45 45 45 45 45 45 45 48 35 32 32 32 29 29 10 0 0 23 26 19 26 13 3 3 3 3 13 16 19 19 13 6 3 3 3 3 0 6 13 10 10
39 42 42 42 35 39 39 42 39 35 29 29 29 26 26 19 10 0 0 16 19 19 13 10 6 0 0 0 3 13 6 10 10 6 10 10 13 13 13 10 13 13 10
39 39 42 39 29 26 32 32 29 29 29 29 26 23 19 16 10 3 0 0 3 16 16 13 6 0 0 0 0 0 0 0 10 10 3 10 10 10 10 10 13 13 16
32 35 35 35 32 29 32 29 29 29 29 23 23 19 16 13 13 0 0 0 0 10 13 3 0 0 0 0 0 0 0 3 10 10 13 10 6 3 6 13 10 16 16
23 26 32 39 35 32 29 29 26 29 23 23 23 16 16 10 10 10 6 3 0 3 6 0 0 0 0 0 0 0 3 10 13 13 13 13 13 13 10 10 10 10 10
23 23 26 26 19 32 29 26 16 19 10 19 16 13 13 13 3 3 10 10 10 10 10 10 6 13 10 10 10 10 10 10 6 10 10 10 10 10 13 10 13 10 13
23 26 23 23 29 23 16 6 6 10 10 3 0 3 10 3 0 0 0 0 0 0 3 10 10 10 6 6 10 6 6 6 6 6 10 10 6 10 10 10 10 10 10
23 23 23 19 16 23 13 13 13 10 0 0 0 0 0 0 0 0 0 0 0 0 3 10 10 10 10 6 6 6 6 6 6 6 6 6 6 6 10 6 6 6 10
23 23 16 16 16 16 16 13 13 13 13 10 0 0 0 0 0 0 0 0 3 3 3 6 10 10 10 6 6 6 6 6 6 6 6 6 6 3 3 3 3 3 6
23 19 16 16 13 16 10 13 13 13 13 13 10 3 0 0 0 0 0 3 6 6 6 6 10 10 10 10 6 6 6 6 6 6 6 6 3 3 3 3 3 3 3
19 13 13 16 16 16 10 10 10 10 16 13 13 13 6 6 6 6 3 6 6 6 6 6 10 13 13 6 6 6 6 6 6 6 6 6 3 3 3 3 3 3 0
16 13 0 10 13 10 10 10 10 10 10 16 13 13 6 6 6 6 6 6 6 6 6 10 13 13 10 6 6 6 6 6 6 6 6 6 0 0 0 0 0 0 0
10 13 13 13 10 10 10 10 10 13 13 13 16 13 3 6 10 10 10 10 6 10 10 10 13 10 10 10 6 10 6 6 6 3 3 3 0 0 0 0 0 0 0
6 6 6 10 10 10 10 13 13 13 10 13 13 13 13 13 13 13 10 10 10 10 10 10 10 6 6 6 6 3 3 3 6 6 3 0 0 0 3 3 0 0 0
13 10 6 6 10 13 13 13 10 10 13 13 13 13 13 13 13 13 10 10 6 6 3 6 6 6 6 6 3 6 3 0 3 3 3 3 3 0 0 3 0 0 0
16 10 10 13 13 13 13 13 10 10 13 13 13 13 13 13 10 10 6 6 6 3 3 3 0 3 3 6 6 6 0 0 0 0 6 6 6 3 3 0 0 0 0
13 13 13 13 13 13 13 10 10 13 13 13 13 13 13 13 6 6 3 3 3 3 3 3 3 0 3 6 6 3 0 0 0 0 3 6 6 6 6 3 0 0 0

GEFSGL_con_cape1000_378.txt.gz
Probability
58 55 58 61 65 65 61 68 61 61 65 61 65 65 65 65 65 65 58 55 55 52 48 42 42 39 42 39 39 45 35 26 23 26 26 32 32 26 10 13 13 3 6
61 61 61 58 61 55 55 55 58 61 61 61 68 65 61 58 61 61 55 48 35 39 45 39 32 35 42 35 29 29 29 32 19 13 19 23 23 23 23 19 13 10 6
48 55 58 61 58 58 58 55 58 58 61 61 58 58 58 52 52 55 52 42 39 39 32 32 29 26 29 32 29 29 32 13 16 10 16 26 23 19 23 19 10 16 6
52 52 58 58 58 52 55 61 58 61 55 52 55 52 55 52 52 48 48 42 39 39 32 35 26 23 23 23 26 29 23 26 19 16 19 23 23 19 19 19 13 16 13
68 58 61 61 65 61 65 65 68 65 52 58 52 58 55 48 42 42 39 32 39 35 32 29 16 16 16 16 16 23 19 16 16 16 16 19 16 16 13 16 13 19 10
65 68 68 71 65 68 68 68 65 58 52 52 52 61 48 35 16 16 19 32 39 32 35 32 16 16 13 6 6 6 6 10 16 16 16 13 13 10 16 10 13 16 13
61 65 68 68 68 65 58 65 61 61 58 58 58 65 52 32 13 10 3 26 39 42 42 35 23 10 19 16 6 6 6 3 3 10 13 13 10 10 10 16 13 13 6
58 61 58 65 65 65 68 61 61 58 58 52 52 55 52 35 13 10 6 23 39 35 35 35 32 19 13 6 16 16 19 16 10 10 10 10 10 6 10 10 10 10 10
55 55 55 58 61 61 61 65 58 58 65 55 58 55 52 35 10 6 3 32 42 42 35 32 26 23 10 6 13 19 19 13 6 6 6 6 6 3 3 10 10 10 6
42 48 52 52 55 58 65 61 61 61 61 65 55 48 39 42 16 6 3 23 39 35 29 29 13 13 6 0 10 16 16 16 10 6 6 6 3 6 3 6 6 6 6
35 45 45 52 48 55 55 61 58 55 61 58 58 45 45 39 10 3 3 23 19 23 23 16 13 3 0 0 0 6 6 10 10 10 13 13 10 6 6 6 6 6 6
42 42 48 52 35 32 55 58 61 58 52 52 58 48 45 35 16 10 3 0 3 13 16 16 6 0 0 0 0 0 0 0 10 13 13 10 10 10 10 10 10 10 10
45 45 39 42 39 39 42 45 45 45 39 39 35 32 35 35 26 10 3 0 0 3 13 3 0 0 0 0 0 0 0 6 10 6 6 13 13 13 10 13 10 13 10
39 32 42 42 35 45 48 39 39 35 32 32 32 29 29 29 29 16 16 3 0 0 0 3 0 0 0 0 0 0 0 6 10 10 10 13 13 10 13 16 13 13 13
39 35 32 35 32 39 32 39 35 32 29 32 29 29 23 23 10 3 6 10 10 6 6 10 10 10 10 10 10 10 10 6 6 13 16 10 19 13 13 13 13 13 10
29 29 26 26 32 32 19 16 10 3 6 6 6 6 10 6 3 0 0 0 3 3 0 13 13 16 13 13 13 13 10 10 10 10 13 16 16 13 13 13 13 10 10
32 32 26 26 26 23 23 19 19 3 3 3 3 0 3 0 0 0 0 0 0 0 6 10 13 13 16 16 19 13 13 10 16 10 6 10 6 13 10 10 10 10 10
26 19 19 26 23 23 19 19 19 13 10 6 3 0 0 0 0 0 0 0 0 0 6 10 10 13 16 16 16 13 13 13 13 10 6 10 10 6 6 10 10 10 10
19 16 19 23 23 23 19 19 19 16 13 6 6 3 0 0 0 0 0 0 6 10 10 10 10 10 10 16 16 10 10 10 13 13 6 6 6 6 6 6 6 6 6
23 16 13 13 16 16 19 19 16 16 13 6 10 6 3 0 0 0 0 0 6 10 10 10 10 13 16 16 16 13 13 13 10 6 6 6 6 6 6 3 3 3 3
13 13 3 13 13 16 19 16 13 10 6 10 13 13 3 3 6 13 6 6 6 6 13 10 13 10 13 16 13 13 16 10 6 6 3 3 3 3 3 3 3 3 0
10 10 13 13 13 16 16 13 10 10 10 10 13 3 3 6 6 10 10 10 10 6 6 6 10 13 16 13 13 13 13 10 6 6 3 3 3 3 3 3 3 3 0
10 10 13 13 13 13 10 13 10 10 10 10 13 13 6 10 10 10 13 10 10 10 10 13 13 13 10 13 13 13 10 10 13 6 6 3 3 3 6 3 3 0 0
10 10 13 13 16 16 13 13 10 6 10 10 13 13 16 13 10 10 10 13 13 10 10 13 13 10 10 10 13 10 10 10 6 6 10 3 3 3 3 0 0 0 0
10 10 13 16 16 19 13 13 13 10 13 13 6 10 10 10 10 10 10 16 16 16 13 10 10 10 10 10 6 6 3 0 3 3 6 3 3 0 3 0 0 0 0
10 10 6 10 13 16 16 13 13 13 10 10 6 10 10 10 10 10 13 13 16 13 10 10 10 10 6 3 3 3 0 0 0 0 3 3 3 3 3 6 0 0 0

GEFSGL_con_cape1000_384.txt.gz
Probability
35 32 23 26 26 26 26 19 23 26 23 26 29 32 32 35 32 32 29 19 19 19 19 19 19 16 13 13 10 3 3 3 3 6 6 6 3 0 0 0 0 0 0
32 32 26 19 19 19 16 19 23 26 26 29 26 32 32 35 39 26 26 19 16 13 19 19 19 16 13 10 3 3 3 3 3 3 6 3 3 0 0 0 0 0 0
29 26 26 29 19 19 19 19 26 26 23 23 29 35 29 29 32 35 26 26 16 19 19 19 19 16 13 13 6 6 3 3 3 3 6 3 3 3 0 0 0 0 0
29 26 26 19 26 16 23 23 23 26 32 32 32 35 35 32 32 26 29 23 19 19 19 16 16 13 13 10 10 6 6 6 3 3 6 6 3 3 3 3 3 0 0
26 19 26 16 19 19 23 23 19 26 32 32 29 29 29 29 32 23 19 23 23 16 16 13 13 13 10 10 10 10 6 6 6 6 6 3 3 3 3 3 3 3 0
23 23 13 13 10 16 23 29 29 29 35 35 29 29 26 19 19 19 13 16 16 13 13 10 10 10 10 10 6 6 6 6 6 6 6 3 0 0 3 3 3 3 3
19 16 16 13 10 13 23 29 29 29 29 32 26 19 19 19 19 19 16 19 13 13 10 10 10 10 10 10 10 6 6 6 3 6 6 3 0 0 0 0 3 3 0
13 13 16 19 19 23 23 29 26 26 26 29 29 19 16 19 16 16 6 13 13 13 10 10 10 10 10 10 6 6 6 6 6 3 3 3 3 0 0 0 0 0 0
10 6 16 16 16 16 23 26 23 26 23 23 26 19 13 16 10 10 3 13 10 10 10 6 10 10 6 6 6 6 3 3 3 3 3 3 3 0 0 0 3 3 3
13 10 13 10 16 19 23 19 19 23 23 26 23 23 19 13 10 3 0 10 13 13 13 10 6 3 3 3 3 3 3 3 3 3 3 0 0 0 0 0 0 3 3
13 10 13 16 13 13 16 19 19 19 19 23 23 19 23 16 10 3 0 6 16 10 13 10 6 3 3 3 3 3 3 3 0 3 3 3 0 0 0 0 0 3 3
13 13 13 13 19 16 13 16 23 23 26 23 19 19 19 13 6 3 0 0 0 13 16 10 3 0 0 0 0 0 0 0 0 0 0 6 3 3 3 3 0 0 3
13 13 13 13 13 13 13 16 16 19 23 26 23 23 23 16 10 6 3 0 0 3 10 6 0 0 0 0 0 0 0 0 0 0 0 0 0 6 3 0 0 0 0
10 10 13 13 6 10 13 16 16 16 19 23 23 23 23 19 10 6 3 0 0 0 0 0 0 0 0 0 0 0 0 0 0 0 0 0 0 3 0 0 0 0 0
6 6 6 10 10 6 6 3 10 13 13 16 19 19 16 13 13 6 3 3 3 0 0 0 0 0 0 0 0 0 0 0 0 0 0 0 3 3 0 0 0 0 0
6 6 6 6 6 0 0 3 3 6 3 3 3 6 3 3 6 0 0 0 0 0 0 0 0 0 3 3 3 0 0 3 3 0 0 0 3 0 0 0 0 0 0
10 6 6 6 6 0 0 3 0 0 0 0 0 0 0 0 0 0 0 0 0 0 0 0 0 3 6 6 3 3 3 6 3 3 0 0 0 0 0 0 0 0 0
10 6 10 10 10 0 0 0 0 0 0 3 0 0 0 0 0 0 0 0 0 0 0 0 0 3 6 6 6 6 10 10 0 0 3 3 0 0 0 0 0 0 0
10 10 10 10 10 3 3 3 0 0 0 0 0 0 0 0 0 0 0 0 0 0 0 0 0 3 3 6 6 6 10 3 3 3 3 3 3 3 3 3 0 0 0
10 6 10 10 6 6 3 3 0 0 0 0 0 0 0 0 0 0 0 0 0 0 0 0 0 3 3 3 3 6 6 3 3 3 3 3 3 3 3 3 3 3 3
10 6 6 10 6 3 3 3 3 0 0 0 0 0 0 0 0 0 0 0 0 0 0 0 0 3 3 3 3 3 6 3 3 3 3 3 3 3 3 3 3 3 3
10 10 6 6 3 3 3 3 3 0 0 0 0 0 0 0 0 0 0 0 0 0 0 0 3 3 3 3 3 3 0 3 3 3 3 3 3 3 3 3 3 3 3
10 10 6 6 6 6 6 3 3 0 0 0 0 0 0 0 0 0 0 0 0 0 0 0 3 3 0 0 0 0 3 3 3 3 3 3 3 3 3 3 3 3 3
10 10 10 6 6 6 6 3 3 3 3 0 0 3 3 3 3 3 3 3 0 0 3 3 0 0 0 0 3 3 3 3 3 3 3 3 3 3 3 3 3 3 3
10 10 10 6 6 6 6 0 0 0 0 0 3 3 3 3 0 0 0 0 3 3 3 0 0 0 0 0 3 3 3 0 0 3 3 3 3 3 3 3 3 3 3
10 10 10 10 6 6 0 0 0 0 0 0 0 0 0 0 0 0 0 3 3 3 0 0 0 0 0 0 0 0 0 0 0 0 3 3 3 3 3 3 3 3 0